Regional Weather Roundup
Issued by NWS

Home | Current Version | Previous Version | Graphics & Text | Print | Product List | Glossary On
Versions: 1 2 3 4 5 6 7 8 9 10 11 12 13 14 15 16 17 18 19 20 21 22 23 24 25 26 27 28 29 30 31 32 33 34 35 36 37 38 39 40 41 42 43 44 45 46 47 48 49 50
000
ASUS44 KMEG 250510
RWRTN
TENNESSEE HOURLY STATE WEATHER ROUNDUP
NATIONAL WEATHER SERVICE MEMPHIS TN
1200 AM CDT SAT OCT 25 2014

TNZ002-004-019-021-049-052-054-088>092-250600-
WEST TENNESSEE

CITY           SKY/WX    TMP DP  RH WIND       PRES   REMARKS
MEMPHIS INTL   PTCLDY    60  55  83 CALM      30.09F
NWS MEMPHIS      N/A     54 N/A N/A MISG        N/A
JACKSON        CLEAR     49  47  93 CALM      30.09F FOG
DYERSBURG      CLEAR     52  43  71 CALM      30.09F
UNION CITY     CLEAR     48  48 100 CALM      30.07F
PARIS          CLEAR     46  46 100 CALM      30.09S
HUNTINGDON       N/A     46  45  97 CALM      30.09S
LEXINGTON      CLOUDY    46  46 100 CALM      30.08S VSB 1/4
SAVANNAH       CLEAR     46  46 100 CALM      30.10S
$$

TNZ008-025-027-028-033-062-065-066-250600-
NORTH MIDDLE TENNESSEE

CITY           SKY/WX    TMP DP  RH WIND       PRES   REMARKS
NASHVILLE      CLEAR     49  47  93 S3        30.09F
CLARKSVILLE    CLEAR     49  47  93 CALM      30.08S FOG
SMYRNA         CLEAR     46  46 100 CALM      30.10F FOG
COOKEVILLE     CLEAR     39  39 100 CALM      30.08F
CROSSVILLE     CLEAR     45  39  79 CALM      30.10S
$$

TNZ061-075-076-078-094-096-097-250600-
SOUTH MIDDLE TENNESSEE

CITY           SKY/WX    TMP DP  RH WIND       PRES   REMARKS
FAYETTEVILLE   CLEAR     48  43  81 N5G17     30.10S
TULLAHOMA      CLEAR     45  39  81 CALM      30.10S
WINCHESTER     CLEAR     43  41  93 CALM      30.10F
MCMINNVILLE    CLEAR     43  43 100 CALM      30.10S
COLUMBIA       CLEAR    N/A N/A N/A CALM      30.08S
SHELBYVILLE    CLEAR     45  45 100 CALM      30.11R
$$

TNZ017-018-042-046-047-250600-
NORTHEAST TENNESSEE

CITY           SKY/WX    TMP DP  RH WIND       PRES   REMARKS
TRI CITIES     CLEAR     40  39  97 CALM      30.09S
ELIZABETHTON   CLEAR     37  37 100 CALM      30.09S
$$

TNZ012-013-036-069-073-074-250600-
CENTRAL EAST TENNESSEE

CITY           SKY/WX    TMP DP  RH WIND       PRES   REMARKS
KNOXVILLE      CLEAR     48  44  86 CALM      30.08S
OAK RIDGE      CLEAR     46  43  89 CALM      30.10S
GATLINBURG     CLEAR     43  39  87 CALM      30.09S
MORRISTOWN     CLEAR     46  43  87 CALM      30.08F
$$

TNZ083-085-099-250600-
SOUTHEAST TENNESSEE

CITY           SKY/WX    TMP DP  RH WIND       PRES   REMARKS
CHATTANOOGA    CLEAR     48  45  89 CALM      30.08S
$$

SKY/WX REPORTED AS FAIR MEANS FEW OR NO CLOUDS BELOW
12 THOUSAND FEET.




USA.gov is the U.S. government's official web portal to all federal, state and local government web resources and services.